Location: Asheville, NC
(35.6000°N, 82.5500°W)
Time: 06:25:19
(UTC-05:00)

Tiangong 2 - Pass Details

Date: 18 February 2018
Orbit: 384 x 389 km, 42.8° (Epoch: 24 February)

Event Time Altitude Azimuth Distance (km) Brightness Sun altitude
Rises 18:41:25 0° 294° (WNW) 2,261 6.0 -6.1°
Reaches altitude 10° 18:43:48 10° 311° (NW) 1,405 4.5 -6.5°
Maximum altitude 18:46:20 22° 4° (N) 910 2.8 -7.0°
Drops below altitude 10° 18:48:52 10° 57° (ENE) 1,402 3.3 -7.6°
Enters shadow 18:49:08 - 60° (ENE) 1,491 3.5 -7.6°
